{"data":{"norad_id":55168,"intl_designator":"2023-004AE","name":"ONEWEB-0627","alt_names":[],"object_type":"PAYLOAD","status":"ACTIVE","operator":null,"country":"UK","launch_date":"2023-01-10","launch_site_code":"AFETR","launch_vehicle":null,"mission":null,"orbit_class":"UNKNOWN","rcs_meters":null,"size_class":null,"mass_kg":null,"dimensions":null,"purposes":["comms"],"wikipedia_slug":null,"has_3d_model":false,"image_url":null,"decayed_at":null,"tle_current":{"epoch":"2026-05-25T03:06:11.348064Z","epoch_age_seconds":60046,"freshness":"FRESH","line1":"1 55168U 23004AE  26145.12929801  .00000007  00000+0 -14395-4 0  9997","line2":"2 55168  87.9153  10.4601 0002286  91.2199 268.9195 13.17650938164544","mean_motion":13.17650938,"eccentricity":0.0002286,"inclination_deg":87.9153,"raan_deg":10.4601,"arg_perigee_deg":91.2199,"mean_anomaly_deg":268.9195,"bstar":-1.4395e-5,"rev_number":16454,"period_min":109.28539254757,"perigee_km":1191.974912142,"apogee_km":1195.4367586863,"semimajor_km":7571.8428354141,"source":"CELESTRAK","updated_at":"2026-05-25T13:38:22.645592Z"}}}